Lapse_Rate
7.7 7.6 8.0 8.4 8.1 8.3 8.6 8.9 8.7 9.0 9.1 8.9 8.9 8.5 8.9 8.7 8.4 8.1 8.1 7.9 7.5 7.8 7.7 6.8 6.7 6.8 6.9 6.8 6.8 6.9 6.6 6.6 6.7 6.5 6.4 6.5 6.2 6.5 6.3 6.2 5.9 5.4 6.1 6.1
7.6 7.5 8.7 8.7 8.5 8.6 8.7 8.5 9.1 8.9 9.1 9.0 8.9 8.9 8.8 8.6 8.8 8.5 7.8 7.9 8.3 7.7 7.9 7.5 7.3 6.6 6.6 6.5 6.5 6.7 6.7 6.8 6.6 6.5 6.3 6.3 6.3 6.4 6.5 6.4 6.0 6.1 6.0 5.9
7.6 8.1 8.6 8.4 8.5 8.6 8.6 8.4 8.9 9.3 9.5 8.9 8.7 8.7 8.6 8.5 8.3 7.8 7.5 7.8 7.8 8.1 7.8 8.1 7.8 7.5 7.1 6.7 6.7 6.8 7.1 7.1 7.2 6.9 6.8 6.7 6.8 6.7 6.8 6.7 6.6 6.6 6.4 6.2
7.4 8.3 8.2 8.1 8.6 8.3 8.3 9.2 9.1 9.0 9.3 9.2 8.6 8.4 8.6 8.5 8.3 7.7 7.5 7.5 8.0 7.8 7.9 7.4 8.5 8.0 7.7 7.3 6.9 7.0 7.1 7.1 7.1 7.2 7.1 7.1 7.2 7.2 7.3 7.4 6.9 6.8 6.6 6.5
7.5 7.7 8.2 8.1 8.6 8.3 8.8 8.9 9.0 9.2 9.7 9.1 8.6 8.5 8.5 8.2 8.0 7.8 7.9 7.6 7.7 7.7 7.2 7.2 7.1 7.3 7.0 7.0 7.1 7.1 7.3 7.2 6.8 7.3 7.1 7.0 6.8 7.2 7.3 7.4 7.5 7.3 7.0 6.6
7.7 7.8 7.8 8.2 8.3 8.2 8.7 8.9 9.2 9.3 9.4 8.7 9.2 8.8 8.3 8.3 8.3 8.2 7.9 8.3 7.5 7.2 7.3 6.5 7.1 7.2 7.6 7.0 7.0 7.1 6.5 7.2 6.9 7.2 7.1 7.2 7.2 7.0 7.0 7.0 7.0 6.9 6.9 6.8
7.5 8.1 7.8 8.1 8.5 8.4 8.9 9.1 9.0 8.7 7.9 7.7 8.9 9.0 8.0 8.0 8.5 8.0 8.1 8.0 7.6 7.7 7.2 7.2 7.7 7.8 7.5 7.3 7.0 7.0 6.6 6.8 6.7 7.0 7.3 6.9 7.1 6.9 6.9 6.9 7.0 6.9 6.7 6.7
7.3 7.8 7.9 8.3 8.6 8.6 9.0 9.2 9.1 8.2 7.1 8.0 8.6 8.1 7.4 7.5 8.1 7.7 8.0 7.7 7.7 7.8 7.7 8.2 8.4 8.0 7.7 7.2 7.1 6.3 6.9 6.7 7.1 6.7 6.9 7.2 7.0 7.1 6.9 6.7 6.7 6.7 6.6 6.7
7.2 7.5 8.1 8.5 8.8 8.6 9.0 9.1 9.4 9.3 8.7 8.1 7.7 7.5 7.5 7.5 7.6 8.0 8.1 7.9 7.9 7.9 7.6 8.0 8.2 7.9 7.6 6.9 6.3 5.4 5.4 5.6 6.5 6.7 7.0 7.2 7.0 7.0 7.0 6.8 6.8 6.6 6.6 6.4
7.4 7.4 8.3 8.8 8.7 8.8 8.9 9.1 9.2 9.3 7.6 7.3 7.4 7.6 8.4 8.1 8.2 8.3 8.2 7.8 7.8 8.3 8.0 7.8 8.1 7.6 7.5 6.9 6.3 6.7 6.1 6.1 6.2 6.1 6.2 6.4 6.5 6.7 6.6 6.6 6.7 6.8 6.7 6.6
7.8 7.6 8.5 8.6 8.8 9.0 9.2 8.9 9.0 9.2 9.1 6.7 6.2 7.8 8.3 8.1 8.3 8.5 8.2 7.8 7.8 7.7 7.5 6.5 7.0 6.8 6.8 7.0 7.0 7.1 6.6 6.0 5.9 5.9 6.1 6.6 6.5 6.5 6.4 6.3 6.5 6.6 6.6 6.6
8.0 7.9 8.2 8.3 8.9 8.9 9.0 9.1 9.1 9.1 8.5 8.4 8.2 8.1 8.5 8.4 8.6 8.4 7.7 7.5 7.6 7.4 7.4 6.9 6.7 6.7 6.2 6.3 6.3 6.1 5.9 5.6 5.5 6.2 6.5 6.7 6.4 6.2 6.2 6.4 6.5 6.5 6.4 6.5
8.5 8.0 8.2 8.6 8.9 9.1 9.2 9.4 9.5 9.3 9.5 9.1 8.4 8.3 8.5 8.5 8.5 7.9 7.7 7.4 7.5 7.4 7.2 6.7 6.6 6.4 6.1 6.0 6.2 6.4 6.2 6.1 6.6 6.7 6.5 6.1 5.9 6.0 6.2 6.4 6.6 6.7 6.6 6.5
9.3 8.8 8.4 8.4 8.8 9.2 9.2 9.2 9.4 9.2 9.3 9.0 9.0 9.0 8.4 8.5 8.1 8.0 7.9 7.3 7.2 6.7 6.6 6.3 6.2 6.0 5.9 5.8 5.8 6.0 6.2 6.2 6.2 6.0 5.8 5.8 5.9 6.2 6.6 6.8 6.8 6.7 6.6 6.5
9.3 9.1 9.0 9.0 9.1 9.1 9.1 9.1 9.2 9.3 9.4 9.2 9.2 9.2 9.0 8.8 8.6 8.0 7.7 7.3 7.1 6.8 6.4 6.0 5.8 5.8 5.6 5.4 5.4 5.6 5.8 5.9 5.9 6.0 6.1 6.2 6.5 6.7 6.8 6.7 6.8 6.8 6.7 6.7
9.1 9.2 9.1 9.0 9.0 9.1 9.1 9.0 9.0 9.2 9.2 9.2 9.2 9.1 8.7 8.3 8.0 7.8 7.6 7.4 7.2 6.7 6.4 6.0 5.9 5.8 5.5 5.4 5.5 5.6 5.8 6.1 6.1 6.2 6.3 6.5 6.7 6.7 6.8 6.8 6.7 6.5 6.4 6.3
8.7 9.2 9.4 9.0 9.1 9.0 8.7 8.8 8.9 9.0 9.0 9.3 9.2 9.2 8.8 8.0 8.0 7.7 7.8 7.1 6.8 6.6 6.4 6.3 6.1 5.8 5.8 5.7 5.7 6.0 6.3 6.4 6.5 6.6 6.5 6.5 6.6 6.7 6.6 6.4 6.2 6.1 6.0 6.0
8.9 9.3 9.5 9.3 8.9 8.0 8.6 8.7 8.9 9.0 8.8 8.9 8.9 8.8 8.4 8.3 8.2 8.2 7.4 6.6 6.8 6.6 6.5 6.3 5.9 5.8 5.7 5.6 6.0 6.3 6.5 6.6 6.3 6.2 6.4 6.4 6.3 6.2 6.2 6.2 6.2 6.2 6.2 6.3
9.0 9.2 9.4 9.2 8.8 8.5 8.4 8.9 8.8 8.4 8.3 8.8 8.6 8.7 8.6 8.5 8.3 7.9 7.5 7.1 6.7 6.5 6.3 6.0 5.9 5.8 5.6 5.9 6.0 6.0 5.9 5.9 6.0 6.0 6.0 6.0 5.9 6.0 6.1 6.1 6.2 6.2 6.3 6.3
9.4 9.6 9.5 9.1 8.7 7.7 8.7 8.8 8.9 8.7 8.7 8.9 8.6 8.7 8.5 8.1 8.0 7.8 7.8 7.2 6.9 6.4 6.0 5.7 5.6 5.4 5.7 5.7 5.6 5.6 5.8 5.9 5.9 5.9 6.0 5.8 5.9 6.0 6.0 6.0 6.1 6.1 6.1 6.1
9.2 9.5 9.3 9.2 8.9 8.6 8.7 8.6 8.7 8.7 8.5 8.7 8.7 8.6 8.1 7.9 7.7 7.6 7.4 7.1 6.8 6.3 5.8 5.4 5.1 5.3 5.4 5.4 5.4 5.6 5.8 5.8 5.8 5.9 5.8 5.8 5.8 5.8 5.8 5.8 5.9 6.0 6.0 5.9
9.0 9.1 9.0 8.9 8.7 8.3 8.9 8.6 8.5 8.9 8.8 9.0 8.7 8.1 7.6 7.7 7.5 7.4 7.2 6.8 6.2 5.7 5.2 5.1 5.2 5.2 5.2 5.3 5.5 5.7 5.8 5.8 5.8 5.7 5.7 5.8 5.7 5.7 5.7 5.7 5.8 5.7 5.6 5.5
8.8 9.0 9.5 9.4 9.3 9.1 9.1 9.0 9.2 9.0 8.7 8.6 8.6 8.3 8.0 7.9 7.4 7.2 6.8 6.2 5.8 5.5 5.3 5.3 5.2 5.2 5.4 5.5 5.6 5.8 5.7 5.7 5.6 5.6 5.6 5.6 5.6 5.7 5.8 5.6 5.5 5.3 5.3 5.3
8.4 8.7 8.7 9.1 9.2 9.1 9.2 9.1 8.9 8.7 8.6 8.7 8.7 8.2 7.9 7.5 7.4 6.9 6.5 6.0 5.6 5.5 5.3 5.1 5.3 5.5 5.5 5.7 5.8 5.7 5.7 5.6 5.5 5.5 5.5 5.5 5.5 5.5 5.3 5.3 5.2 5.2 5.0 4.9
8.4 8.4 8.8 9.1 9.3 9.4 9.3 9.1 8.7 8.3 8.2 8.4 8.1 7.8 7.5 7.1 7.1 6.5 6.1 5.8 5.5 5.4 5.2 5.2 5.5 5.7 5.8 5.8 5.9 5.9 5.7 5.6 5.6 5.6 5.5 5.4 5.3 5.3 5.1 5.0 5.0 5.0 4.9 5.0
8.6 8.6 8.5 9.0 9.5 9.5 9.1 8.9 8.5 8.4 8.5 8.3 7.7 7.4 7.0 6.8 6.6 6.4 6.1 5.8 5.6 5.5 5.5 5.6 5.7 5.8 5.8 5.9 5.9 5.8 5.7 5.7 5.6 5.6 5.5 5.4 5.3 5.1 5.0 5.0 4.9 4.8 4.8 4.8
Wind_Speed
4 5 6 8 6 4 2 4 6 9 8 9 15 7 20 17 14 12 11 10 11 19 18 9 9 9 7 7 9 11 10 8 6 2 2 2 6 5 3 4 9 8 13 14
4 4 8 2 3 3 3 5 12 8 6 15 8 5 17 18 19 13 10 9 11 6 5 6 8 7 10 12 11 9 10 7 6 5 3 2 3 3 5 3 8 17 14 15
6 7 5 2 6 6 3 4 9 8 5 4 7 3 7 8 4 6 7 10 9 10 8 7 8 10 8 10 12 10 10 8 7 6 2 1 1 2 2 4 4 7 12 13
5 4 5 5 7 5 8 3 10 4 5 4 3 3 7 5 9 11 12 14 15 9 7 11 8 3 11 10 4 5 6 7 6 7 5 5 3 4 3 3 3 4 6 7
7 3 1 5 9 5 12 7 9 13 6 5 1 5 5 5 6 7 13 17 15 1 9 15 8 9 6 7 3 3 4 6 5 6 5 4 5 7 7 4 5 6 5 5
6 1 2 5 4 5 9 7 5 4 4 3 4 4 3 4 8 4 8 10 8 8 9 8 7 6 6 9 5 6 9 7 6 5 4 7 8 6 3 3 3 4 4 4
8 7 4 2 7 2 4 6 3 4 5 5 5 5 6 9 4 2 10 9 9 9 8 6 5 1 5 10 16 4 7 6 7 8 7 6 7 5 4 5 4 5 4 3
6 7 6 3 7 8 5 8 5 5 4 3 5 3 1 5 4 7 8 10 8 4 1 8 4 5 5 8 19 18 23 21 3 6 3 4 6 4 4 4 4 5 5 4
5 6 3 3 2 5 3 3 3 7 3 4 2 1 2 3 3 6 5 10 7 7 8 9 6 5 7 7 15 19 13 19 21 7 9 8 8 8 6 8 6 6 7 7
6 4 5 6 1 2 5 4 3 3 4 2 4 3 5 4 7 6 6 7 9 6 4 5 5 5 4 6 11 15 11 7 14 8 6 6 7 7 5 7 9 8 7 8
7 5 8 2 3 5 4 1 5 6 4 6 4 6 5 9 11 12 9 10 4 6 2 0 5 8 9 11 8 9 14 2 9 4 5 7 6 4 5 6 6 6 6 7
9 6 8 11 5 5 5 8 8 5 4 1 4 5 4 10 10 6 10 5 4 7 5 8 9 9 10 9 10 8 8 6 3 3 3 6 5 7 8 8 7 7 8 8
8 1 4 11 8 2 4 2 4 6 4 6 6 4 3 4 5 5 5 7 7 10 8 10 10 9 9 9 9 8 8 6 2 1 6 6 6 7 6 6 6 6 6 6
11 5 8 8 8 3 4 3 3 6 4 6 5 7 6 10 9 8 5 3 7 9 7 8 7 5 5 6 7 7 6 4 3 7 7 8 7 6 6 6 6 6 6 6
9 9 6 6 6 5 3 5 6 5 7 8 7 10 16 20 15 14 7 6 11 12 9 6 6 6 5 8 7 7 6 7 6 8 8 5 4 5 5 5 6 6 6 6
4 6 5 4 3 5 4 4 4 2 4 7 7 0 7 6 9 8 10 9 10 11 10 8 10 9 9 9 7 6 6 5 4 6 5 5 5 3 3 6 6 6 6 5
2 7 4 5 3 4 2 4 2 4 2 8 7 8 8 7 14 15 12 10 11 9 8 8 9 9 8 8 7 7 6 5 6 6 4 2 3 5 7 7 6 6 6 6
3 2 3 4 3 3 6 2 5 7 1 4 7 8 14 11 5 8 7 7 10 9 9 11 9 7 8 7 7 7 5 6 6 5 5 6 5 6 6 7 7 7 7 7
7 6 4 5 3 4 2 3 8 7 4 6 12 9 8 10 6 5 6 5 6 7 9 10 8 9 8 8 6 7 6 7 7 6 6 6 6 6 6 6 6 5 5 5
5 5 5 3 5 6 8 3 6 5 0 6 8 16 18 11 4 4 7 7 9 11 11 11 9 8 9 6 6 8 7 6 5 3 4 4 4 4 5 4 4 3 3 5
3 4 7 3 2 6 5 6 5 7 7 11 14 19 17 6 4 9 11 10 11 12 13 9 7 8 7 6 6 7 5 4 1 4 5 3 1 1 1 2 3 3 5 5
5 6 4 4 4 3 7 3 11 7 3 19 14 17 12 9 15 16 14 14 14 14 12 9 9 7 6 6 7 5 4 1 2 3 3 2 2 2 0 3 4 4 5 6
1 5 4 7 8 4 8 6 5 6 14 11 16 9 13 17 16 16 13 13 12 12 9 6 9 7 5 5 5 5 2 1 2 0 1 2 2 3 3 3 5 4 4 4
1 5 3 1 4 4 8 4 5 7 8 12 12 19 19 18 17 16 12 11 9 9 8 6 8 7 6 4 4 3 2 1 2 0 1 3 4 5 4 3 3 4 4 4
3 2 2 3 3 7 7 6 12 14 17 18 14 18 20 20 16 16 12 11 9 8 6 6 7 6 6 4 4 3 2 2 1 2 3 5 4 5 6 4 4 4 6 6
4 4 4 5 4 3 5 7 12 18 19 21 23 15 12 18 18 15 11 10 11 10 7 7 6 7 5 4 3 2 1 1 0 3 3 2 3 4 3 4 6 9 14 15
Wind_Direction
354 51 255 243 199 196 258 217 227 231 217 180 208 164 179 190 199 196 192 204 204 203 208 199 205 204 172 181 188 190 200 196 174 153 179 231 246 257 230 239 237 240 241 231
13 233 253 261 269 292 3 312 290 277 181 183 153 211 184 185 205 193 177 192 201 153 156 165 178 203 187 190 197 189 206 191 178 197 199 188 174 236 244 239 232 228 234 236
179 238 19 357 319 355 317 217 284 252 75 39 114 29 171 209 208 181 166 195 199 176 163 174 174 191 189 204 194 204 199 197 194 170 166 151 67 298 276 258 269 230 224 220
236 262 236 284 277 125 294 215 275 207 113 198 120 245 222 179 203 170 171 191 202 173 167 194 195 220 182 206 215 195 230 204 197 161 187 207 193 248 258 258 276 272 251 239
230 177 176 239 237 151 254 260 263 263 151 100 357 100 265 153 185 184 186 196 204 178 25 26 19 9 5 337 264 179 211 219 197 173 184 202 251 251 264 264 290 301 294 255
220 280 184 234 315 202 263 307 41 38 85 67 216 141 343 219 210 190 189 201 86 96 75 27 339 13 343 11 294 182 188 190 178 171 191 216 237 275 319 304 300 301 306 309
332 290 273 187 313 26 107 59 317 2 15 211 308 69 229 289 332 200 169 124 118 134 162 162 192 283 61 26 20 359 335 176 156 171 206 238 260 283 291 313 319 321 331 330
182 312 191 171 189 221 228 157 169 190 203 238 327 45 268 300 355 77 114 130 146 134 308 231 224 90 104 76 63 41 17 360 325 99 82 10 356 13 8 20 0 2 351 336
157 263 283 169 241 134 276 205 202 107 22 82 280 92 36 329 53 34 76 112 152 184 218 246 19 64 112 140 95 65 2 337 331 20 64 45 39 44 36 33 31 18 5 12
223 289 239 277 154 286 167 166 53 353 131 135 299 210 208 199 146 164 187 169 195 177 258 285 250 113 69 73 95 112 151 291 308 13 33 51 52 38 21 41 31 8 3 4
148 140 261 174 195 223 338 4 30 114 105 149 166 258 186 179 185 186 193 196 116 113 209 358 57 63 80 81 76 88 171 148 281 6 26 52 46 18 31 39 24 6 360 11
193 163 242 235 242 241 198 212 167 135 216 101 144 263 149 181 183 166 192 161 125 76 49 76 83 68 69 87 102 90 82 180 217 64 53 52 39 35 40 34 20 12 17 16
172 246 278 306 350 358 222 165 133 119 92 186 145 229 219 144 144 221 207 118 95 85 86 77 82 79 93 97 113 129 131 118 114 156 65 53 44 36 31 24 12 12 10 2
134 140 165 214 215 181 313 217 181 122 121 166 215 144 181 172 179 191 209 163 114 97 106 108 107 112 118 121 111 112 110 115 110 75 66 50 32 19 20 9 4 10 4 9
142 197 169 229 226 171 219 251 186 180 166 149 205 185 181 184 176 186 169 153 132 130 136 148 133 132 119 96 79 75 73 62 55 60 53 41 12 18 13 6 9 2 360 357
298 201 137 202 235 216 230 22 115 85 130 77 101 157 115 119 130 151 170 163 149 152 161 151 137 133 123 113 109 101 100 100 98 76 64 32 15 341 7 25 5 3 346 348
139 145 106 213 162 131 14 181 133 118 70 144 148 213 146 157 165 174 169 167 160 161 159 122 130 130 122 122 138 123 110 98 81 76 64 48 19 16 22 17 6 2 352 353
178 89 93 141 96 191 234 212 209 126 80 149 113 147 176 175 117 135 145 155 154 161 122 122 126 121 117 123 117 110 107 94 90 72 48 33 19 27 25 23 11 2 352 348
177 133 81 126 155 266 236 176 149 140 212 212 137 124 111 102 86 70 152 142 138 123 122 130 135 127 133 127 121 112 87 72 62 46 32 24 34 35 28 28 15 359 4 349
79 64 113 123 136 186 227 202 136 98 174 182 145 138 139 153 123 224 157 119 107 109 119 123 119 127 114 108 90 79 74 74 65 38 52 46 54 35 18 16 358 349 351 343
55 26 147 142 134 287 240 208 152 103 225 148 159 153 160 159 183 143 124 103 114 121 119 114 111 115 114 109 102 83 90 92 29 338 16 44 37 2 2 342 323 340 348 348
177 139 161 106 110 189 172 41 165 172 181 154 163 163 142 108 118 119 118 119 123 126 122 121 111 112 117 117 98 103 102 147 6 20 43 3 308 263 38 304 310 339 351 352
196 173 197 174 202 225 175 197 189 137 146 159 149 145 126 134 128 122 125 127 130 124 120 108 114 115 127 132 125 124 155 82 21 150 213 280 295 287 318 291 305 315 322 327
244 42 220 68 261 237 137 65 98 117 121 139 137 140 142 135 129 120 122 121 121 127 124 116 117 116 128 152 156 153 146 63 56 104 262 275 288 294 290 287 280 290 294 296
208 15 321 286 342 68 25 122 117 111 115 110 119 137 141 130 123 125 128 133 135 127 119 132 128 134 149 163 152 150 147 148 118 302 288 278 281 281 287 280 249 271 264 226
179 187 176 225 238 136 187 125 128 125 129 127 123 122 130 134 131 132 132 137 138 141 140 125 131 133 164 173 148 123 95 180 285 311 282 298 295 301 296 290 309 228 246 275